TimeEDT,TemperatureF,Dew PointF,Humidity,Sea Level PressureIn,VisibilityMPH,Wind Direction,Wind SpeedMPH,Gust SpeedMPH,PrecipitationIn,Events,Conditions,WindDirDegrees,DateUTC
12:53 AM,39.0,24.1,55,29.61,10.0,Calm,Calm,-,0.00,,Overcast,0,2013-03-26 04:53:00
1:53 AM,37.9,24.1,57,29.62,10.0,Calm,Calm,-,N/A,,Overcast,0,2013-03-26 05:53:00
2:53 AM,36.0,26.1,67,29.64,10.0,Calm,Calm,-,N/A,,Overcast,0,2013-03-26 06:53:00
3:53 AM,35.1,27.0,72,29.65,10.0,Calm,Calm,-,N/A,,Overcast,0,2013-03-26 07:53:00
4:53 AM,33.1,27.0,78,29.66,10.0,Calm,Calm,-,N/A,,Overcast,0,2013-03-26 08:53:00
5:53 AM,32.0,27.0,82,29.68,10.0,Calm,Calm,-,N/A,,Overcast,0,2013-03-26 09:53:00
6:53 AM,33.1,27.0,78,29.70,10.0,Calm,Calm,-,N/A,,Overcast,0,2013-03-26 10:53:00
7:53 AM,37.0,25.0,62,29.72,10.0,Variable,3.5,-,N/A,,Overcast,0,2013-03-26 11:53:00
8:53 AM,39.0,26.1,60,29.73,10.0,West,4.6,-,N/A,,Overcast,280,2013-03-26 12:53:00
9:53 AM,43.0,27.0,53,29.75,10.0,Variable,5.8,-,N/A,,Mostly Cloudy,0,2013-03-26 13:53:00
10:53 AM,46.0,27.0,47,29.75,10.0,NNW,6.9,-,0.00,Rain,Light Rain,330,2013-03-26 14:53:00
11:53 AM,48.9,26.1,41,29.75,10.0,North,11.5,17.3,0.00,Rain,Light Rain,350,2013-03-26 15:53:00
12:53 PM,50.0,25.0,38,29.75,10.0,Variable,6.9,-,0.00,,Mostly Cloudy,0,2013-03-26 16:53:00
1:53 PM,50.0,23.0,35,29.74,10.0,WNW,8.1,18.4,0.00,,Scattered Clouds,290,2013-03-26 17:53:00
2:53 PM,48.0,24.1,39,29.75,10.0,Variable,4.6,-,0.00,,Overcast,0,2013-03-26 18:53:00
3:53 PM,44.1,27.0,51,29.76,10.0,Variable,5.8,17.3,0.00,Rain,Light Rain,0,2013-03-26 19:53:00
4:53 PM,48.9,23.0,36,29.76,10.0,NW,8.1,20.7,0.00,Rain,Light Rain,320,2013-03-26 20:53:00
5:53 PM,48.9,21.9,35,29.77,10.0,North,8.1,-,0.00,,Scattered Clouds,10,2013-03-26 21:53:00
6:53 PM,45.0,23.0,42,29.81,10.0,NNW,5.8,-,0.00,,Mostly Cloudy,330,2013-03-26 22:53:00
7:53 PM,43.0,24.1,47,29.83,10.0,Calm,Calm,-,N/A,,Scattered Clouds,0,2013-03-26 23:53:00
8:53 PM,37.0,26.1,65,29.85,10.0,Calm,Calm,-,N/A,,Partly Cloudy,0,2013-03-27 00:53:00
9:53 PM,32.0,25.0,75,29.87,10.0,Calm,Calm,-,N/A,,Clear,0,2013-03-27 01:53:00
10:53 PM,30.9,24.1,76,29.88,10.0,Calm,Calm,-,N/A,,Clear,0,2013-03-27 02:53:00
11:53 PM,32.0,24.1,73,29.88,10.0,West,3.5,-,N/A,,Clear,280,2013-03-27 03:53:00